STARLINK-32852, 62824

Orbit data source: Space-Track

STARLINK-32852, 62824 is a payload satellite owned by SpaceX/Seattle (US) in LEO that was launched on Fri, 24 Jan 2025 UTC via an FALCON 9 launch vehicle from the Air Force Western Test Range (AFWTR). Payload-class satellites include a variety of spacecraft equipped with specific instruments for various scientific and technological missions. These include communications satellites like Starlink; space stations such as the ISS; scientific satellites like the Hubble; Earth observation satellites from companies like Planet Labs, Umbra, and HawkEye 360; GPS; miniature CubeSats for education and research; and military/defense satellites.

Loading next visibility...
Identifier
62824, 2025-018U
Orbit
LEO
Country
Flag of USUS
Related business
Manufacturer
SpaceX/Seattle
Mission
Operational Commercial Communications
Bus & Motor
STARLINK V2M, Unknown motor
Mass
730 kg wet, ~700 kg dry
Launch date (UTC)
2025-01-24 (1 year ago)
Launch vehicle
FALCON 9
Launch site
Air Force Western Test Range (AFWTR)
Object type
Payload
Rocket body
Debris
Shape & HBR
Box + 2 Pan, 17.7 m
Radar Cross Section
33.884 m², Large (>1 m²)

Expand to show TLE details & history
Last TLE update: 1 day ago

TLE from 1 day ago
0 STARLINK-32852
1 62824U 25018U   26103.54480760  .00008891  00000-0  31191-3 0  9998
2 62824  53.1579 147.7851 0001206  84.3416 275.7722 15.30202462 68519
Epoch: 2026-04-13T13:04Z
TLE epoch observation values (Epoch: 2026-04-13T13:04:31.376Z)
Latitude
-0.00005°
Longitude
109.92045°
Altitude
476.024 km
Speed
7.629 km/s
True Right ascension
09h 51m 08s
True Declination
0° 00' 00"
Sunlit
Object was in full shadow at epoch
Visualization orbit readout
Latitude
Unknown
Longitude
Unknown
Altitude
Unknown
Speed
Unknown
Apparent Right ascension
Unknown
Apparent Declination
Unknown
Sunlit
N/A
Visualization observer readout
Local Sidereal Time
22:56:07
Azimuth
Unknown
Elevation
Unknown
Doppler factor
Unknown
Orbital elements
Apogee altitude
476.291 km
Perigee altitude
474.638 km
Semi-major axis
6,853.601 km
Eccentricity
0.00012
Inclination
53.1579°
RAAN
147.7851°
Arg. of periapsis
84.3416°
True anomaly
275.75845°
Mean anomaly
275.7722°
Eccentric anomaly
275.76533°
Mean motion
3.82529 °/min
Orbital period
94.11 mins
BSTAR
0.00031191
Loading maneuver chart data...
Computing Atmospheric mass density...
Loading historical data...
Loading historical data...
Loading historical data...
Loading historical data...
Loading historical data...
Loading historical data...
Loading historical data...

Documentation

Showing up to 5 results
|